#timestamp,LO_Frequency,Hit,StdDev 
1606683615.3,286047001.9,N
1606683635.1,286047001.1,N
1606683655.9,286046998.4,N
1606683675.7,286047000.5,N
1606683695.5,286046998.5,N
1606683715.4,286047000.7,N
1606683735.2,286046998.7,N
1606683755.1,286046997.2,N
1606683756.0,286046997.2,N
1606683775.8,286046996.9,N
1606683795.6,286046994.0,N
1606683815.5,286046999.4,N
1606683835.3,286046994.6,N
1606683855.2,286046990.2,Y
1606683875.9,286046996.1,P
1606683895.7,286046998.0,N
1606683915.6,286047000.7,N
1606683935.4,286047002.8,N
1606683955.2,286046998.0,N
1606683975.1,286047001.1,N
1606683976.0,286047001.1,N
1606683995.8,286047001.9,N
1606684015.7,286047005.4,N
1606684035.5,286047005.0,N
1606684055.3,286046999.8,N
1606684075.2,286046997.7,N
1606684095.0,286046997.6,N
1606684095.9,286046997.6,N
1606684115.8,286046993.3,N
1606684135.6,286047001.2,N
1606684155.4,286046999.6,N
1606684175.3,286046997.9,N
1606684195.1,286046998.4,N
1606684215.9,286046991.8,N
1606684235.7,286046993.5,N
1606684255.5,286046995.9,N
1606684275.4,286046997.2,N
1606684295.2,286046997.5,N
1606684315.1,286046999.5,N
1606684316.0,286046999.5,N
1606684335.8,286046999.1,N
1606684355.6,286047000.8,N
1606684375.5,286047002.6,N
1606684395.3,286046999.8,N
1606684415.1,286046996.5,N
1606684435.9,286046994.0,N
1606684455.7,286046995.1,N
1606684475.6,286046994.3,N
1606684495.4,286046997.5,N
1606684515.2,286046997.2,N
1606684535.1,286046993.3,N
1606684536.0,286046993.3,N
1606684555.8,286046998.0,N
1606684575.6,286046996.6,N
1606684595.5,286046992.1,Y
1606684615.3,286046997.9,P
1606684635.2,286046996.9,P
1606684655.9,286047000.1,N
1606684675.7,286047001.2,N
1606684695.6,286047005.4,Y
1606684715.4,286046999.1,P
1606684735.3,286046999.2,P
1606684755.1,286047002.7,P
1606684756.0,286047002.7,N
1606684775.8,286047000.9,N
1606684795.7,286046997.7,N
1606684815.5,286046995.0,N
1606684835.3,286046993.5,N
1606684855.2,286046998.7,N
1606684875.0,286047001.3,N
1606684875.9,286047001.3,N
1606684895.8,286047000.2,N
1606684915.6,286047001.4,N
1606684935.4,286047006.3,N
1606684955.3,286047013.9,Y
1606684975.1,286047007.9,P
1606684995.9,286047001.3,N
1606685015.7,286047005.7,N
1606685035.5,286047003.5,N
1606685055.4,286047003.5,N
1606685075.2,286047002.3,N
1606685095.0,286047001.4,N
1606685095.9,286047001.4,N
1606685115.8,286047003.9,N
1606685135.6,286047003.4,N
1606685155.5,286047001.0,N
1606685175.3,286047002.8,N
1606685195.1,286046992.8,Y
1606685215.9,286047000.0,P
1606685235.7,286047002.3,N
1606685255.6,286046998.9,N
1606685275.4,286046996.5,N
1606685295.2,286046995.4,N
1606685315.1,286046995.4,N
1606685316.0,286046995.4,N
1606685335.8,286046996.5,N
1606685355.7,286047001.2,N
1606685375.5,286046997.5,N
1606685395.3,286046996.9,N
1606685415.2,286046996.3,N
1606685435.0,286046995.3,N
1606685435.9,286046995.3,N
1606685455.8,286046997.5,N
1606685475.6,286046989.7,Y
1606685495.4,286046998.2,P
1606685515.3,286046997.7,P
1606685535.1,286046996.2,P
1606685555.9,286046993.9,Y
1606685575.7,286047001.5,P
1606685595.5,286047000.4,N
1606685615.4,286046999.7,N
1606685635.2,286047001.0,N
1606685655.0,286047001.4,N
1606685655.9,286047001.4,N
1606685675.8,286047001.6,N
1606685695.6,286047008.7,Y
1606685715.5,286047008.2,P
1606685735.3,286047005.4,N
1606685755.1,286047004.6,N
1606685775.9,286047004.3,N
1606685795.7,286047007.1,N
1606685815.5,286047005.2,N
1606685835.4,286047007.6,Y
1606685855.2,286046993.4,P
1606685875.1,286046998.5,N
1606685876.0,286046998.5,N
1606685895.8,286046994.2,N
1606685915.6,286046994.3,N
1606685935.5,286046995.6,N
1606685955.3,286046999.4,N
1606685975.2,286047000.4,N
1606685995.9,286047002.6,N
1606686015.7,286046995.6,N
1606686035.6,286046992.4,N
1606686055.4,286046990.2,N
1606686075.2,286046993.8,N
1606686095.1,286046997.3,N
1606686096.0,286046997.3,N
1606686115.8,286046995.4,N
1606686135.7,286046992.0,N
1606686155.5,286046995.8,N
1606686175.3,286046990.4,N
1606686195.2,286046989.7,N
1606686215.0,286046993.4,N
1606686215.9,286046993.4,N
1606686235.7,286047000.7,N
1606686255.6,286047002.6,N
1606686275.4,286047000.2,N
1606686295.3,286046998.7,N
1606686315.1,286046996.9,N
1606686316.0,286046996.9,N
1606686335.8,286046997.2,N
1606686355.7,286046990.5,N
1606686375.5,286046988.5,Y
1606686395.4,286046995.4,P
1606686415.2,286046995.2,P
1606686435.0,286046998.1,P
1606686435.9,286046998.1,N
1606686455.8,286047003.3,N
1606686475.6,286047006.7,N
1606686495.4,286047007.6,N
1606686515.3,286047006.7,N
1606686535.1,286047007.4,N
1606686555.9,286047008.0,N
1606686575.7,286047008.1,N
1606686595.5,286047010.5,N
1606686615.4,286047009.3,N
1606686635.2,286047013.5,N
1606686655.0,286047005.2,N
1606686656.0,286047005.2,N
1606686675.8,286047009.1,N
1606686695.6,286047007.5,N
1606686715.5,286047002.6,N
1606686735.3,286046999.7,N
1606686755.1,286046998.9,N
1606686775.9,286046996.6,N
1606686795.7,286046999.4,N
1606686815.6,286047001.3,N
1606686835.4,286047000.9,N
1606686855.2,286046997.9,N
1606686875.1,286046999.5,N
1606686876.0,286046999.5,N
1606686895.8,286047004.2,N
1606686915.6,286047003.3,N
1606686935.5,286047005.8,N
1606686955.3,286047000.7,N
1606686975.2,286047001.6,N
1606686995.9,286047001.3,N
1606687015.7,286047004.7,N
1606687035.6,286046999.9,N
1606687055.4,286047000.9,N
1606687075.2,286046998.5,N
1606687095.1,286047001.3,N
1606687096.0,286047001.3,N
1606687115.8,286046998.2,N
1606687135.7,286047004.3,N
1606687155.5,286047003.9,N
1606687175.3,286047000.1,N
1606687195.2,286047000.6,N
